Regional Weather Roundup
Issued by NWS Newport/Morehead, NC

Current Version | Previous Version | Text Only | Print | Product List | Glossary Off
Versions: 1 2 3 4 5 6 7 8 9 10 11 12 13 14 15 16 17 18 19 20 21 22 23 24 25 26 27 28 29 30 31 32 33 34 35 36 37 38 39 40 41 42 43 44 45 46 47 48 49 50
000 ASUS42 KMHX 022113 RWRMHX WEATHER ROUNDUP FOR EASTERN NORTH CAROLINA NATIONAL WEATHER SERVICE NEWPORT/MOREHEAD CITY NC 500 PM EDT SUN AUG 02 2015 NOTE: "FAIR" INDICATES FEW OR NO CLOUDS BELOW 12,000 FEET WITH NO SIGNIFICANT WEATHER AND/OR OBSTRUCTIONS TO VISIBILITY NCZ015>017-031-032-045>047-102-103-022200- NORTH COAST CITY SKY/WX TMP DP RH WIND PRES REMARKS EDENTON N/A 93 60 33 SW8 29.91R ELIZABETH CITY CLOUDY 88 68 51 W7 29.91R KITTY HAWK CLEAR 91 70 50 S8 29.91S MANTEO MOSUNNY 86 74 68 S15 29.92S $$ NCZ045>047-081-094-103-104-022200- CENTRAL COAST CITY SKY/WX TMP DP RH WIND PRES REMARKS FRISCO SUNNY 86 75 69 SW12 29.94S SWANQUARTER N/A 88 N/A N/A S18 29.88S $$ NCZ095-097-098-100-101-022200- SOUTHERN COAST CITY SKY/WX TMP DP RH WIND PRES REMARKS BEAUFORT MOSUNNY 84 76 76 S15 29.95R CEDAR ISLAND N/A 88 N/A N/A S12G20 29.97S JACKSONVILLE CLOUDY 82 75 79 S9 29.93F PINEY ISLAND MOCLDY N/A N/A N/A S12 29.94 WILMINGTON CLOUDY 84 73 69 S10 29.94S $$ NCZ011>013-027>030-043-044-078>080-089-090>093-098-022200- COASTAL PLAIN CITY SKY/WX TMP DP RH WIND PRES REMARKS AHOSKIE SUNNY 88 63 42 NW3 29.93S CLINTON SUNNY 95 61 32 CALM 29.91F ELIZABETHTOWN MOSUNNY 89 68 50 S13G21 29.91F GOLDSBORO SUNNY 96 60 30 CALM 29.89F GREENVILLE SUNNY 95 61 31 SW6 29.93S HAVELOCK PTSUNNY 84 76 76 S10G17 29.95 KENANSVILLE MOSUNNY 87 69 55 S7 29.94R KINSTON SUNNY 93 55 27 NW5 29.92S NEW BERN SUNNY 88 74 63 S14 29.94S RICHLANDS PTSUNNY 88 70 55 S10G16 29.94S ROCKY MOUNT SUNNY 94 55 26 NW7 29.93R WASHINGTON SUNNY 92 60 34 W5 29.92R WHITEVILLE MOSUNNY 84 76 77 S7 29.92F $$ AMZ130-135-150-152-154-156-158-170-250-252-270-ANZ085-086-088-633-658-670-022200- MARINE OBSERVATIONS STATION/POSITION TIME TEMP WIND PRES WAVE SWELL AIR SEA DIR/SP/G HT/PER HT/PER (UTC) (F) (DEG/KT/KT) (MB) (FT/S) (FT/S) CHESAPEAKE LIGHT 2100 81 60/ 4/ 4 1014.0 64 E VA BEACH 2050 82 82 190/ 14/ 16 1012.9 3/12 2/12 DUCK 2000 82 81 140/ 15/ 18 1012.0 2 E DUCK 2011 81 N/A 2/12 2/12 OREGON INLET 2000 86 80 170/ 11/ 15 1013.3 13E OREGON INLT 2100 82 N/A 3/ 7 2/12 HATTERAS CG 2000 86 82 190/ 6/ 11 1013.5 DIAMOND BUOY 2050 83 86 210/ 17/ 21 1013.8 3/ 7 2/ 7 CAPE LOOKOUT 2100 83 190/ 16/ 18 1013.9 BEAUFORT LAB 2000 84 84 200/ 15/ 17 1013.2 30 SE NEW RVR IN NOT AVBL 27 SE WRIGHTSVLE 2000 79 83 210/ 16/ 17 N/A 5 SE WRIGHTSVLE 2008 83 84 190/ 16/ 19 1014.1 225 S CAPE HAT 2050 76 81 100/ 2/ 4 1017.3 6/ 7 5/ 7 41 SE CHARLESTON 2050 79 83 190/ 6/ 8 1013.6 3/ 6 3/ 6 $$

USA.gov is the U.S. government's official web portal to all federal, state and local government web resources and services.